Погода Пудино

Погода Пудино : погода сейчас, прогноз погоды и архив. Всё, что Вы хотите узнать о погоде Пудино!

Хотите узнать прогноз погоды Пудино? Тогда Вам сюда: Погода Пудино

Поиск расширенной информации на нашем сайте:

Другие новости

Новости СМИ2

Главная страница сайта

Новости сайта

03.07.2017

Напоминаем, что на нашем специализированном сайте Метеоцентр.Азия вы можете получить высокодетализированные автоматические прогнозы погоды по пунктам России, СНГ и мира в авиационном формате (включающие направление и скорость ветра, видимость, явления погоды, количество и форму облачности, нижнюю и верхнюю границу облачности).

Рекомендуем: Актуальная информация жидкие обои магазин на сайте.

Погода Пудино - сегодня

Время (UTC), дата Ветер
(°,м/с) 
Видим.   Явления Облачность Т
(°С)
Тd
(°С)
f(%) Тe
(°С)
Pmin
(гПа)
dP
(гПа)
Po
(мм)
O2
(г/м3)
Тmin Tmax R s Состояние
почвы
03 20.07.17 320 (СЗ) 20000 м    10/1 1000 м средняя, верхняя 
[Sc|Ac As|Ci sp]
+19.5 +13.6 69 +27  1009.7  0.5  749  279           
06 20.07.17 020 (С) 20000 м    9/3 600 м средняя, верхняя 
[Cu med, cong|Ac As|Cc]
+22.6 +13.4 56 +29  1009.6  749  276           
09 20.07.17 270 (З) 20000 м  в посл. час гроза  9/8 600 м кучево-дожд., верхняя 
[Cb cap|Ci sp]
+23.6 +14.8 58 +32  1008.6  -0.9  748  274           
12 20.07.17 160 (Ю) 3{13}  20000 м  гроза без осадков{ливн. осадки}  10/8 300 м кучево-дожд., средняя, верхняя 
[Cb cap|Ac trans|Ci sp]
+17.4 +13.7 79 +25  1010.7  1.8  749  281    +25.6  0.0     
15 20.07.17 260 (З) 20000 м  {гроза}  10/4 600 м кучево-дожд., верхняя 
[Cb cap|Ci sp]
+15.9 +12.9 82 +22  1010.9  0.1  750  283           
18 20.07.17 200 (Ю) 20000 м  {гроза}  3/3 1000 м 
[Sc]
+13 +12 94 +18  1011  750  286           
21 20.07.17 240 (ЮЗ) 20000 м    1/1 1000 м 
[Sc]
+11.6 +10.7 94 +15  1011.4  0.4  750  288           
00 21.07.17 тихо ()   20000 м    4/0 средняя 
[Ac trans]
+11.4 +10.6 95 +13  1012.1  0.6  750  288  +9.9        влажная 
03 21.07.17 тихо ()   20000 м    6/1 600 м средняя 
[Cu hum|Ac lent]
+18.3 +14.2 77 +26  1012.4  0.6  751  281           
06 21.07.17 080 (В) 20000 м    8/3 600 м средняя, верхняя 
[Cu med, cong|Ac trans|Ci fib]
+23 +13.8 56 +30  1012.2  751  276           
09 21.07.17 160 (Ю) 20000 м  в посл. час ливневой дождь  9/4 600 м кучево-дожд., средняя, верхняя 
[Cb cap|Ac trans|Ci ing]
+22.3 +17 72 +35  1011.5  -0.7  750  276           
12 21.07.17 020 (С) 20000 м  {гроза, ливн. осадки}  9/5 600 м кучево-дожд., средняя, верхняя 
[Cb cap|Ac As|Ci sp]
+23 +14.1 57 +30  1011.9  0.4  751  276    +25.1  0.3     
15 21.07.17 250 (З) 10 км  {гроза, ливн. осадки}  6/1 600 м средняя, верхняя 
[Cu med, cong|Ac As|Ci sp]
+17.3 +15.8 91 +29  1012.4  0.3  751  281           
18 21.07.17 270 (З) 1000 м  дымка{гроза, ливн. осадки}  10/3 600 м верхняя 
[Sc|Ci fib]
+13.5 +12.6 94 +20  1012.6  751  286           
21 21.07.17 230 (ЮЗ) 4000 м  дымка{туман}  10/0 средняя, верхняя 
[Ac As|Ci fib]
+12.1 +11.2 94 +16  1012.3  -0.3  751  287           
00 22.07.17 030 (СВ) 10 км  {туман}  8/3 1000 м средняя, верхняя 
[Sc|Ac trans|Ci sp]
+12.9 +12.1 95 +18  1012.9  0.6  751  287  +11.2    0.0    сухая 
03 22.07.17 220 (ЮЗ) 20000 м    6/3 1000 м средняя, верхняя 
[Cu Sc|Ac trans|Ci sp]
+19.7 +15.5 77 +31  1012.9  0.3  751  279           
06 22.07.17 130 (ЮВ) 20000 м    8/8 1000 м 
[Cu hum]
+24.8 +14.1 51 +32  1012.3  -0.5  751  275           
09 22.07.17 030 (СВ) 20000 м    8/6 1000 м кучево-дожд., верхняя 
[Cb calv|Ci sp]
+26.6 +12.8 42 +32  1010.9  -1.3  750  273           
12 22.07.17 060 (СВ) 1{10}  20000 м  в посл. час гроза{ливн. осадки}  8/4 600 м кучево-дожд., средняя, верхняя 
[Cb cap|Ac As|Ci sp]
+20.8 +15.9 74 +31  1011.7  0.7  750  278    +27.3  0.7     
15 22.07.17 тихо ()   4000 м  дымка  6/3 600 м кучево-дожд., средняя, верхняя 
[Cb calv|Ac As|Ci sp]
+17.9 +16.5 92 +29  1012.1  0.2  751  280           
18 22.07.17 тихо ()   4000 м  дымка  8/3 600 м средняя, верхняя 
[Cu Sc|Ac trans|Ci sp]
+14 +13.1 94 +20  1011.8  -0.4  750  285           
21 22.07.17 280 (З) 20000 м    9/0 средняя, верхняя 
[Ac As|Ci sp]
+11.7 +10.9 95 +15  1011.8  -0.2  750  288           
00 23.07.17 тихо ()   20000 м    5/0 средняя, верхняя 
[Ac As|Ci sp]
+14.1 +13.1 94 +20  1011.9  0.3  750  285  +11        сухая 
03 23.07.17 010 (С) 20000 м    1/0 верхняя 
[Cc]
+20.5 +15.1 71 +29  1011.9  0.2  750  278           
Время (UTC), дата Ветер
(°,м/с) 
Видим.   Явления Облачность Т
(°С)
Тd
(°С)
f(%) Тe
(°С)
Pmin
(гПа)
dP
(гПа)
Po
(мм)
O2
(г/м3)
Тmin Tmax R s Состояние
почвы

Для получения пояснительной информации подведите курсор к названию столбца.

ПОГОДА Пудино - архив

Всё, что Вы хотите узнать о погоде Пудино - удобно и подробно!

Выберите нужную дату (начиная с 1 января 2015* года) и нажмите кнопку "Найти".
Будут отображены архивные сводки погоды по пункту Пудино, начиная с указанной даты.


Отображать данные в формате CSV (для использования в таблицах Excel)


Внимание! Наш архив погоды предназначен исключительно для личного некоммерческого использования в познавательных целях. Если Вам необходимы официальные справки о состоянии погоды (для производственных, юридических, коммерческих и т.п. целей), обращайтесь в органы Росгидромета.

*Примечание: данная дата относится к архиву по метеостанциям СССР (Россия, СНГ, Балтия).
Архив по метеостанциям Зарубежной Европы и Азии (кроме Китая) хранится 10 дней, по другим регионам земного шара (Китай, Африка, Америка, Австралия, Океания) - 1 день.

Пудино - район местоположения метеостанции


Название, широта, долгота, высота метеостанции:
Пудино 57.5°ш. 79.4°д. 97 м над ур. моря [Российская Федерация]

Дополнительная информация

В oтличие oт бoльшинства пoгoдных сайтoв мы публикуем пoдрoбную метеoинфoрмацию в детальнoм прoфессиoнальнoм фoрмате.

Характеристики температуры и влажнoсти вoздуха измеряются на высoте 2 м в тени вдали oт зданий и деревьев.
Скoрoсть ветра измеряется на высoте 10 м (на урoвне рoста челoвека скoрoсть ветра ниже в 1.5-2 раза). Если метеoстанция нахoдится в гoрoде или в лесу, тo скoрoсть ветра занижена на 2-4 м/с пo сравнению с oткрытым местoм. Скoрoсть ветра над акватoриями крупных рек и oзёр, а также на вершинах хoлмoв на 2-5 м/с выше, чем в oбычных услoвиях.
Атмoсфернoе давление в разных тoчках местнoсти мoжет значительнo oтличаться oт давления на метеoстанции, в зависимoсти oт услoвий рельефа (при пoдъёме на 10 м давление пoнижается примернo на 1 мм рт.ст.).